Starlink 32193

operational
NORAD ID: 60428 Int'l Des: 2024-144 Owner: SPXS Country: US Constellation: starlink
LEOCIRCULAR

About Starlink 32193

Description loading...

Live Position

Loading 3D Globe...

Upcoming Passes

Altitude History

Altitude vs Time

uPlot chart will show altitude changes over time

Two-Line Element Set

1 60428U 24144D 25257.45559311 -.00001015 00000-0 -22171-4 0 9995
2 60428 53.1583 315.9578 0000943 60.5520 299.5575 15.30188021 62367
Epoch: Sep 14, 2025 • Age: 24 hours

Current Status

Altitude 478.9 km
Velocity 7.63 km/s
Sub-Earth Point 43.08°N, 159.64°W
Launch Date Aug 12, 2024
Age 1 years
Type internet

Technical Details

Classification Payload
Mass 730.00 kg
Dry Mass 700.00 kg
Total Mass 730.00 kg
Length 0.30 m
Diameter 4.10 m
Span 29.00 m
Shape Box + pan
Manufacturer SPXS
Bus Type Starlink V2M
Phase Status In Orbit
Owner/State SPXS/US

Large Constellations

Loading constellations...